Simultaneous Nadir Overpasses (SNOs) Predictions

Prediction of SNOs between GOES-15 and METOP-A Satellite Orbit:

Table of predicted SNOs for the next 14.0 days since TLE Epoch: 4/1/2016
<
Index Date Time (GOES-15) GOES-15 Lat,Lon METOP-A Lat,Lon Distance(km) Time Diff (sec)
1 04/01/2016 18:28:27 0.00,-135.19 0.01,-135.15 4.11 80
2 04/04/2016 06:29:30 0.00,-135.21 0.11,-134.77 51.06 80
3 04/05/2016 18:45:42 -0.00,-135.27 0.92,-139.33 462.28 80
4 04/06/2016 18:27:43 0.00,-135.29 -0.21,-134.34 108.73 80
5 04/08/2016 06:46:45 0.00,-135.28 -0.80,-138.94 416.18 80
6 04/09/2016 06:23:25 -0.00,-135.30 0.28,-133.94 154.29 80
7 04/10/2016 18:42:19 -0.00,-135.35 0.69,-138.51 360.55 80
8 04/11/2016 18:24:19 -0.00,-135.36 -0.38,-133.51 209.62 80
9 04/13/2016 06:43:20
